Time,TemperatureF,DewpointF,PressureIn,WindDirection,WindDirectionDegrees,WindSpeedMPH,WindSpeedGustMPH,Humidity,HourlyPrecipIn,Conditions,Clouds,dailyrainin,SoftwareType,DateUTC
2013-12-16 00:00:00,36.7,31.1,30.08,NW,316,0.0,0.0,80,0.00,,OVC,0.00,WeatherDisplay:10.37,2013-12-16 05:00:00,
2013-12-16 00:05:00,36.6,31.0,30.08,NW,316,0.0,0.0,80,0.00,SCT,OVC,0.00,WeatherDisplay:10.37,2013-12-16 05:05:00,
2013-12-16 00:10:00,36.4,30.8,30.08,NW,316,0.0,0.0,80,0.00,SCT,OVC,0.00,WeatherDisplay:10.37,2013-12-16 05:10:00,
2013-12-16 00:15:00,36.3,30.7,30.08,NW,316,0.0,0.0,80,0.00,SCT,OVC,0.00,WeatherDisplay:10.37,2013-12-16 05:15:00,
2013-12-16 00:20:00,36.1,30.5,30.08,NW,316,0.0,0.0,80,0.00,SCT,OVC,0.00,WeatherDisplay:10.37,2013-12-16 05:20:00,
2013-12-16 00:25:00,36.0,30.4,30.08,NW,316,0.0,0.0,80,0.00,SCT,OVC,0.00,WeatherDisplay:10.37,2013-12-16 05:25:00,
2013-12-16 00:30:00,35.8,30.2,30.07,NW,316,0.0,0.0,80,0.00,SCT,OVC,0.00,WeatherDisplay:10.37,2013-12-16 05:30:00,
2013-12-16 00:40:00,35.6,30.0,30.08,NW,316,0.0,0.0,80,0.00,SCT,OVC,0.00,WeatherDisplay:10.37,2013-12-16 05:40:00,
2013-12-16 00:45:00,35.5,29.9,30.08,NW,316,0.0,0.0,80,0.00,SCT,OVC,0.00,WeatherDisplay:10.37,2013-12-16 05:45:00,
2013-12-16 00:50:00,35.4,30.1,30.08,NW,316,0.0,0.0,81,0.00,SCT,OVC,0.00,WeatherDisplay:10.37,2013-12-16 05:50:00,
2013-12-16 00:55:00,35.3,30.1,30.08,NW,316,0.0,0.0,81,0.00,SCT,OVC,0.00,WeatherDisplay:10.37,2013-12-16 05:55:00,
2013-12-16 01:00:00,35.3,30.0,30.08,NW,316,0.0,0.0,81,0.00,,OVC,0.00,WeatherDisplay:10.37,2013-12-16 06:00:00,
2013-12-16 01:10:00,35.1,29.9,30.08,NW,316,0.0,0.0,81,0.00,SCT,OVC,0.00,WeatherDisplay:10.37,2013-12-16 06:10:00,
2013-12-16 01:16:00,35.1,29.9,30.08,NW,316,0.0,0.0,81,0.00,SCT,OVC,0.00,WeatherDisplay:10.37,2013-12-16 06:16:00,
2013-12-16 01:25:00,35.0,29.8,30.08,NW,316,0.0,0.0,81,0.00,SCT,OVC,0.00,WeatherDisplay:10.37,2013-12-16 06:25:00,
2013-12-16 01:30:00,35.0,29.8,30.08,NW,316,0.0,0.0,81,0.00,SCT,OVC,0.00,WeatherDisplay:10.37,2013-12-16 06:30:00,
2013-12-16 01:40:00,35.0,29.8,30.08,NW,316,0.0,0.0,81,0.00,SCT,OVC,0.00,WeatherDisplay:10.37,2013-12-16 06:40:00,
2013-12-16 01:45:00,35.1,29.9,30.08,NW,316,0.0,0.0,81,0.00,SCT,OVC,0.00,WeatherDisplay:10.37,2013-12-16 06:45:00,
2013-12-16 01:55:00,35.1,29.9,30.08,NW,316,0.0,0.0,81,0.00,SCT,OVC,0.00,WeatherDisplay:10.37,2013-12-16 06:55:00,
2013-12-16 02:00:00,35.1,29.9,30.08,NW,316,0.0,0.0,81,0.00,,OVC,0.00,WeatherDisplay:10.37,2013-12-16 07:00:00,
2013-12-16 02:10:00,35.0,29.8,30.08,NW,316,0.0,0.0,81,0.00,SCT,OVC,0.00,WeatherDisplay:10.37,2013-12-16 07:10:00,
2013-12-16 02:15:00,35.0,29.8,30.08,NW,316,0.0,0.0,81,0.00,SCT,OVC,0.00,WeatherDisplay:10.37,2013-12-16 07:15:00,
2013-12-16 02:25:00,34.9,29.6,30.08,NW,316,0.0,0.0,81,0.00,SCT,OVC,0.00,WeatherDisplay:10.37,2013-12-16 07:25:00,
2013-12-16 02:30:00,34.8,29.9,30.08,NW,316,0.0,0.0,82,0.00,SCT,OVC,0.00,WeatherDisplay:10.37,2013-12-16 07:30:00,
2013-12-16 02:40:00,34.7,29.8,30.08,NW,316,0.0,0.0,82,0.00,SCT,OVC,0.00,WeatherDisplay:10.37,2013-12-16 07:40:00,
2013-12-16 02:45:00,34.6,29.7,30.08,NW,316,0.0,0.0,82,0.00,SCT,OVC,0.00,WeatherDisplay:10.37,2013-12-16 07:45:00,
2013-12-16 02:55:00,34.5,29.6,30.08,NW,316,0.0,0.0,82,0.00,SCT,OVC,0.00,WeatherDisplay:10.37,2013-12-16 07:55:00,
2013-12-16 03:00:00,34.4,29.5,30.08,NW,316,0.0,0.0,82,0.00,,OVC,0.00,WeatherDisplay:10.37,2013-12-16 08:00:00,
2013-12-16 03:10:00,34.3,29.4,30.08,NW,316,0.0,0.0,82,0.00,SCT,OVC,0.00,WeatherDisplay:10.37,2013-12-16 08:10:00,
2013-12-16 03:15:00,34.2,29.3,30.08,NW,316,0.0,0.0,82,0.00,SCT,OVC,0.00,WeatherDisplay:10.37,2013-12-16 08:15:00,
2013-12-16 03:25:00,34.1,29.5,30.08,NW,316,0.0,0.0,83,0.00,SCT,OVC,0.00,WeatherDisplay:10.37,2013-12-16 08:25:00,
2013-12-16 03:30:00,34.0,29.4,30.08,NW,316,0.0,0.0,83,0.00,SCT,OVC,0.00,WeatherDisplay:10.37,2013-12-16 08:30:00,
2013-12-16 03:40:00,33.9,29.3,30.08,NW,316,0.0,0.0,83,0.00,SCT,OVC,0.00,WeatherDisplay:10.37,2013-12-16 08:40:00,
2013-12-16 03:45:00,33.8,29.2,30.08,NW,316,0.0,0.0,83,0.00,SCT,OVC,0.00,WeatherDisplay:10.37,2013-12-16 08:45:00,
2013-12-16 03:55:00,33.6,29.0,30.09,NW,316,0.0,0.0,83,0.00,SCT,OVC,0.00,WeatherDisplay:10.37,2013-12-16 08:55:00,
2013-12-16 04:00:00,33.5,28.9,30.10,NW,316,0.0,0.0,83,0.00,,OVC,0.00,WeatherDisplay:10.37,2013-12-16 09:00:00,
2013-12-16 04:10:00,33.4,29.1,30.10,NW,316,0.0,0.0,84,0.00,SCT,OVC,0.00,WeatherDisplay:10.37,2013-12-16 09:10:00,
2013-12-16 04:15:00,33.3,29.0,30.10,NW,316,0.0,0.0,84,0.00,SCT,OVC,0.00,WeatherDisplay:10.37,2013-12-16 09:15:00,
2013-12-16 04:25:00,33.2,28.9,30.10,NW,316,0.0,0.0,84,0.00,SCT,OVC,0.00,WeatherDisplay:10.37,2013-12-16 09:25:00,
2013-12-16 04:30:00,33.2,28.9,30.10,NW,316,0.0,0.0,84,0.00,SCT,OVC,0.00,WeatherDisplay:10.37,2013-12-16 09:30:00,
2013-12-16 04:40:00,33.0,29.0,30.10,NW,316,0.0,0.0,85,0.00,SCT,OVC,0.00,WeatherDisplay:10.37,2013-12-16 09:40:00,
2013-12-16 04:45:00,33.0,29.0,30.10,NW,316,0.0,0.0,85,0.00,SCT,OVC,0.00,WeatherDisplay:10.37,2013-12-16 09:45:00,
2013-12-16 04:55:00,32.8,28.8,30.10,NW,316,0.0,0.0,85,0.00,SCT,OVC,0.00,WeatherDisplay:10.37,2013-12-16 09:55:00,
2013-12-16 05:00:00,32.8,28.8,30.10,NW,316,0.0,0.0,85,0.00,,OVC,0.00,WeatherDisplay:10.37,2013-12-16 10:00:00,
2013-12-16 05:10:00,32.7,28.7,30.10,NW,316,0.0,0.0,85,0.00,SCT,OVC,0.00,WeatherDisplay:10.37,2013-12-16 10:10:00,
2013-12-16 05:20:00,32.6,28.6,30.10,NW,316,0.0,0.0,85,0.00,SCT,OVC,0.00,WeatherDisplay:10.37,2013-12-16 10:20:00,
2013-12-16 05:25:00,32.5,28.5,30.10,NW,316,0.0,0.0,85,0.00,SCT,OVC,0.00,WeatherDisplay:10.37,2013-12-16 10:25:00,
2013-12-16 05:30:00,32.5,28.5,30.10,NW,316,0.0,0.0,85,0.00,SCT,OVC,0.00,WeatherDisplay:10.37,2013-12-16 10:30:00,
2013-12-16 05:40:00,32.4,28.7,30.11,NW,316,0.0,0.0,86,0.00,SCT,OVC,0.00,WeatherDisplay:10.37,2013-12-16 10:40:00,
2013-12-16 05:45:00,32.3,28.6,30.11,NW,316,0.0,0.0,86,0.00,SCT,OVC,0.00,WeatherDisplay:10.37,2013-12-16 10:45:00,
2013-12-16 05:55:00,32.2,28.5,30.12,NW,316,0.0,0.0,86,0.00,SCT,OVC,0.00,WeatherDisplay:10.37,2013-12-16 10:55:00,
2013-12-16 06:00:00,32.1,28.4,30.12,NW,316,0.0,0.0,86,0.00,,OVC,0.00,WeatherDisplay:10.37,2013-12-16 11:00:00,
2013-12-16 06:10:00,32.0,28.6,30.12,NW,316,0.0,0.0,87,0.00,SCT,OVC,0.00,WeatherDisplay:10.37,2013-12-16 11:10:00,
2013-12-16 06:15:00,32.0,28.6,30.12,NW,316,0.0,0.0,87,0.00,SCT,OVC,0.00,WeatherDisplay:10.37,2013-12-16 11:15:00,
2013-12-16 06:25:00,32.0,28.6,30.12,NW,316,0.0,0.0,87,0.00,SCT,OVC,0.00,WeatherDisplay:10.37,2013-12-16 11:25:00,
2013-12-16 06:30:00,32.0,28.6,30.12,NW,316,0.0,0.0,87,0.00,SCT,OVC,0.00,WeatherDisplay:10.37,2013-12-16 11:30:00,
2013-12-16 06:40:00,32.0,28.5,30.13,NW,316,0.0,0.0,87,0.00,SCT,OVC,0.00,WeatherDisplay:10.37,2013-12-16 11:40:00,
2013-12-16 06:45:00,31.9,28.5,30.13,NW,316,0.0,0.0,87,0.00,SCT,OVC,0.00,WeatherDisplay:10.37,2013-12-16 11:45:00,
2013-12-16 06:55:00,31.9,28.5,30.13,NW,316,0.0,0.0,87,0.00,SCT,OVC,0.00,WeatherDisplay:10.37,2013-12-16 11:55:00,
2013-12-16 07:00:00,31.9,28.5,30.13,NW,316,0.0,0.0,87,0.00,CLR,OVC,0.00,WeatherDisplay:10.37,2013-12-16 12:00:00,
2013-12-16 07:10:00,31.9,28.5,30.14,NW,316,0.0,0.0,87,0.00,SCT,OVC,0.00,WeatherDisplay:10.37,2013-12-16 12:10:00,
2013-12-16 07:15:00,31.8,28.4,30.14,NW,316,0.0,0.0,87,0.00,SCT,OVC,0.00,WeatherDisplay:10.37,2013-12-16 12:15:00,
2013-12-16 07:25:00,31.8,28.4,30.14,NW,316,0.0,0.0,87,0.00,SCT,OVC,0.00,WeatherDisplay:10.37,2013-12-16 12:25:00,
2013-12-16 07:30:00,31.8,28.4,30.14,NW,316,0.0,0.0,87,0.00,SCT,OVC,0.00,WeatherDisplay:10.37,2013-12-16 12:30:00,
2013-12-16 07:40:00,31.8,28.7,30.14,NW,316,0.0,0.0,88,0.00,SCT,OVC,0.00,WeatherDisplay:10.37,2013-12-16 12:40:00,
2013-12-16 07:45:00,31.9,28.8,30.14,NW,316,0.0,0.0,88,0.00,SCT,OVC,0.00,WeatherDisplay:10.37,2013-12-16 12:45:00,
2013-12-16 07:55:00,31.9,28.8,30.15,NW,316,0.0,0.0,88,0.00,SCT,OVC,0.00,WeatherDisplay:10.37,2013-12-16 12:55:00,
2013-12-16 08:00:00,32.0,28.8,30.15,NW,316,0.0,0.0,88,0.00,CLR,OVC,0.00,WeatherDisplay:10.37,2013-12-16 13:00:00,
2013-12-16 08:10:00,32.1,28.9,30.15,NW,316,0.0,0.0,88,0.00,SCT,OVC,0.00,WeatherDisplay:10.37,2013-12-16 13:10:00,
2013-12-16 08:15:00,32.2,29.0,30.15,NW,316,0.0,0.0,88,0.00,SCT,OVC,0.00,WeatherDisplay:10.37,2013-12-16 13:15:00,
2013-12-16 08:25:00,32.4,29.2,30.16,NW,316,0.0,0.0,88,0.00,SCT,OVC,0.00,WeatherDisplay:10.37,2013-12-16 13:25:00,
2013-12-16 08:30:00,32.6,29.4,30.16,NW,316,0.0,0.0,88,0.00,SCT,OVC,0.00,WeatherDisplay:10.37,2013-12-16 13:30:00,
2013-12-16 08:40:00,32.9,29.7,30.16,NW,316,0.0,0.0,88,0.00,SCT,OVC,0.00,WeatherDisplay:10.37,2013-12-16 13:40:00,
2013-12-16 08:45:00,33.2,30.0,30.17,NW,316,0.0,0.0,88,0.00,SCT,OVC,0.00,WeatherDisplay:10.37,2013-12-16 13:45:00,
2013-12-16 08:55:00,36.4,31.4,30.17,NW,316,0.0,0.0,82,0.00,SCT,OVC,0.00,WeatherDisplay:10.37,2013-12-16 13:55:00,
2013-12-16 09:00:00,37.1,31.5,30.17,NW,316,0.0,0.0,80,0.00,CLR,OVC,0.00,WeatherDisplay:10.37,2013-12-16 14:00:00,
2013-12-16 09:10:00,37.9,31.7,30.17,NW,316,0.0,0.0,78,0.00,SCT,OVC,0.00,WeatherDisplay:10.37,2013-12-16 14:10:00,
2013-12-16 09:15:00,38.4,32.1,30.17,NW,316,0.0,0.0,78,0.00,SCT,OVC,0.00,WeatherDisplay:10.37,2013-12-16 14:15:00,
2013-12-16 09:25:00,39.2,32.0,30.18,NW,314,2.0,0.0,75,0.00,SCT,OVC,0.00,WeatherDisplay:10.37,2013-12-16 14:25:00,
2013-12-16 09:30:00,39.7,31.8,30.18,NW,309,1.0,0.0,73,0.00,SCT,OVC,0.00,WeatherDisplay:10.37,2013-12-16 14:30:00,
2013-12-16 09:40:00,40.3,32.3,30.18,NW,309,0.0,0.0,73,0.00,SCT,OVC,0.00,WeatherDisplay:10.37,2013-12-16 14:40:00,
2013-12-16 09:45:00,40.6,32.6,30.18,NW,309,0.0,0.0,73,0.00,SCT,OVC,0.00,WeatherDisplay:10.37,2013-12-16 14:45:00,
2013-12-16 09:55:00,40.9,32.9,30.19,NW,309,0.0,0.0,73,0.00,SCT,OVC,0.00,WeatherDisplay:10.37,2013-12-16 14:55:00,
2013-12-16 10:00:00,40.9,33.3,30.19,NW,309,0.0,0.0,74,0.00,CLR,OVC,0.00,WeatherDisplay:10.37,2013-12-16 15:00:00,
2013-12-16 10:10:00,41.1,33.4,30.18,NW,305,3.0,0.0,74,0.00,SCT,OVC,0.00,WeatherDisplay:10.37,2013-12-16 15:10:00,
2013-12-16 10:15:00,41.3,33.6,30.19,WNW,303,0.0,0.0,74,0.00,SCT,OVC,0.00,WeatherDisplay:10.37,2013-12-16 15:15:00,
2013-12-16 10:25:00,41.6,34.3,30.18,WNW,302,0.0,0.0,75,0.00,SCT,OVC,0.00,WeatherDisplay:10.37,2013-12-16 15:25:00,
2013-12-16 10:30:00,42.2,34.2,30.18,WNW,302,0.0,0.0,73,0.00,SCT,OVC,0.00,WeatherDisplay:10.37,2013-12-16 15:30:00,
2013-12-16 10:40:00,44.4,34.9,30.18,WNW,302,0.0,0.0,69,0.00,SCT,OVC,0.00,WeatherDisplay:10.37,2013-12-16 15:40:00,
2013-12-16 10:45:00,45.0,34.7,30.18,WNW,302,0.0,0.0,67,0.00,SCT,OVC,0.00,WeatherDisplay:10.37,2013-12-16 15:45:00,
2013-12-16 10:55:00,45.7,35.0,30.17,WNW,303,0.0,0.0,66,0.00,SCT,OVC,0.00,WeatherDisplay:10.37,2013-12-16 15:55:00,
2013-12-16 11:00:00,46.1,34.6,30.17,WNW,303,0.0,0.0,64,0.00,CLR,OVC,0.00,WeatherDisplay:10.37,2013-12-16 16:00:00,
2013-12-16 11:10:00,46.7,34.7,30.17,WNW,290,0.0,0.0,63,0.00,SCT,OVC,0.00,WeatherDisplay:10.37,2013-12-16 16:10:00,
2013-12-16 11:15:00,47.0,35.4,30.17,WNW,288,0.0,0.0,64,0.00,SCT,OVC,0.00,WeatherDisplay:10.37,2013-12-16 16:15:00,
2013-12-16 11:25:00,47.3,33.7,30.17,WNW,290,1.0,0.0,59,0.00,SCT,OVC,0.00,WeatherDisplay:10.37,2013-12-16 16:25:00,
2013-12-16 11:30:00,47.5,33.4,30.16,WNW,293,2.0,0.0,58,0.00,SCT,OVC,0.00,WeatherDisplay:10.37,2013-12-16 16:30:00,
2013-12-16 11:40:00,47.7,34.1,30.16,WNW,283,1.0,0.0,59,0.00,SCT,OVC,0.00,WeatherDisplay:10.37,2013-12-16 16:40:00,
2013-12-16 11:45:00,47.8,33.7,30.16,WNW,286,3.0,0.0,58,0.00,SCT,OVC,0.00,WeatherDisplay:10.37,2013-12-16 16:45:00,
2013-12-16 11:55:00,48.1,34.0,30.15,WNW,293,1.0,0.0,58,0.00,SCT,OVC,0.00,WeatherDisplay:10.37,2013-12-16 16:55:00,
2013-12-16 12:00:00,48.1,34.5,30.15,WNW,295,1.0,0.0,59,0.00,CLR,OVC,0.00,WeatherDisplay:10.37,2013-12-16 17:00:00,
2013-12-16 12:10:00,49.0,34.9,30.15,WNW,286,5.0,0.0,58,0.00,SCT,OVC,0.00,WeatherDisplay:10.37,2013-12-16 17:10:00,
2013-12-16 12:15:00,48.8,34.2,30.14,WNW,294,1.0,0.0,57,0.00,SCT,OVC,0.00,WeatherDisplay:10.37,2013-12-16 17:15:00,
2013-12-16 12:25:00,48.9,35.2,30.13,NNW,334,0.0,0.0,59,0.00,SCT,OVC,0.00,WeatherDisplay:10.37,2013-12-16 17:25:00,
2013-12-16 12:30:00,49.4,34.3,30.13,NW,306,0.0,0.0,56,0.00,SCT,OVC,0.00,WeatherDisplay:10.37,2013-12-16 17:30:00,
2013-12-16 12:40:00,49.6,35.0,30.12,NNW,335,7.0,0.0,57,0.00,SCT,OVC,0.00,WeatherDisplay:10.37,2013-12-16 17:40:00,
2013-12-16 12:45:00,49.8,34.7,30.12,NW,325,0.0,0.0,56,0.00,SCT,OVC,0.00,WeatherDisplay:10.37,2013-12-16 17:45:00,
2013-12-16 12:55:00,50.2,34.6,30.12,NW,312,0.0,0.0,55,0.00,SCT,OVC,0.00,WeatherDisplay:10.37,2013-12-16 17:55:00,
2013-12-16 13:00:00,50.3,35.6,30.12,NW,311,0.0,0.0,57,0.00,CLR,OVC,0.00,WeatherDisplay:10.37,2013-12-16 18:00:00,
2013-12-16 13:10:00,50.8,35.2,30.11,NW,308,0.0,0.0,55,0.00,SCT,OVC,0.00,WeatherDisplay:10.37,2013-12-16 18:10:00,
2013-12-16 13:15:00,51.1,34.1,30.11,WNW,298,0.0,0.0,52,0.00,SCT,OVC,0.00,WeatherDisplay:10.37,2013-12-16 18:15:00,
2013-12-16 13:25:00,51.6,36.4,30.11,WNW,292,3.0,0.0,56,0.00,SCT,OVC,0.00,WeatherDisplay:10.37,2013-12-16 18:25:00,
2013-12-16 13:30:00,51.8,35.2,30.10,WNW,285,0.0,0.0,53,0.00,SCT,OVC,0.00,WeatherDisplay:10.37,2013-12-16 18:30:00,
2013-12-16 13:40:00,52.3,35.2,30.10,NW,312,5.0,0.0,52,0.00,SCT,OVC,0.00,WeatherDisplay:10.37,2013-12-16 18:40:00,
2013-12-16 13:45:00,52.4,35.3,30.10,NW,320,0.0,0.0,52,0.00,SCT,OVC,0.00,WeatherDisplay:10.37,2013-12-16 18:45:00,
2013-12-16 13:55:00,52.5,36.8,30.10,WNW,295,0.0,0.0,55,0.00,SCT,OVC,0.00,WeatherDisplay:10.37,2013-12-16 18:55:00,
2013-12-16 14:00:00,52.5,35.4,30.10,WNW,289,2.0,0.0,52,0.00,CLR,OVC,0.00,WeatherDisplay:10.37,2013-12-16 19:00:00,
2013-12-16 14:10:00,52.6,36.4,30.10,WNW,298,0.0,0.0,54,0.00,SCT,OVC,0.00,WeatherDisplay:10.37,2013-12-16 19:10:00,
2013-12-16 14:15:00,52.6,35.9,30.10,WNW,302,0.0,0.0,53,0.00,SCT,OVC,0.00,WeatherDisplay:10.37,2013-12-16 19:15:00,
2013-12-16 14:25:00,53.0,35.8,30.10,WNW,291,5.0,0.0,52,0.00,SCT,OVC,0.00,WeatherDisplay:10.37,2013-12-16 19:25:00,
2013-12-16 14:30:00,53.2,35.5,30.10,WNW,296,1.0,0.0,51,0.00,SCT,OVC,0.00,WeatherDisplay:10.37,2013-12-16 19:30:00,
2013-12-16 14:40:00,53.2,36.0,30.10,NW,314,1.0,0.0,52,0.00,SCT,OVC,0.00,WeatherDisplay:10.37,2013-12-16 19:40:00,
2013-12-16 14:45:00,53.2,35.5,30.10,NW,310,3.0,0.0,51,0.00,SCT,OVC,0.00,WeatherDisplay:10.37,2013-12-16 19:45:00,
2013-12-16 14:55:00,53.4,35.7,30.10,NW,311,1.0,0.0,51,0.00,SCT,OVC,0.00,WeatherDisplay:10.37,2013-12-16 19:55:00,
2013-12-16 15:00:00,53.2,37.0,30.10,WNW,300,1.0,0.0,54,0.00,CLR,OVC,0.00,WeatherDisplay:10.37,2013-12-16 20:00:00,
2013-12-16 15:10:00,53.2,37.4,30.10,WNW,291,0.0,0.0,55,0.00,SCT,OVC,0.00,WeatherDisplay:10.37,2013-12-16 20:10:00,
2013-12-16 15:15:00,53.2,37.0,30.10,WNW,294,0.0,0.0,54,0.00,SCT,OVC,0.00,WeatherDisplay:10.37,2013-12-16 20:15:00,
2013-12-16 15:25:00,53.0,37.2,30.11,WNW,295,0.0,0.0,55,0.00,SCT,OVC,0.00,WeatherDisplay:10.37,2013-12-16 20:25:00,
2013-12-16 15:30:00,52.8,37.5,30.11,WNW,295,0.0,0.0,56,0.00,SCT,OVC,0.00,WeatherDisplay:10.37,2013-12-16 20:30:00,
2013-12-16 15:40:00,52.7,37.9,30.11,WNW,295,1.0,0.0,57,0.00,SCT,OVC,0.00,WeatherDisplay:10.37,2013-12-16 20:40:00,
2013-12-16 15:45:00,52.9,37.6,30.10,WNW,295,0.0,0.0,56,0.00,SCT,OVC,0.00,WeatherDisplay:10.37,2013-12-16 20:45:00,
2013-12-16 15:55:00,52.2,38.7,30.10,NW,309,0.0,0.0,60,0.00,SCT,OVC,0.00,WeatherDisplay:10.37,2013-12-16 20:55:00,
2013-12-16 16:00:00,52.4,38.0,30.10,ENE,63,0.0,0.0,58,0.00,CLR,OVC,0.00,WeatherDisplay:10.37,2013-12-16 21:00:00,
2013-12-16 16:10:00,51.9,38.5,30.10,ENE,78,0.0,0.0,60,0.00,SCT,OVC,0.00,WeatherDisplay:10.37,2013-12-16 21:10:00,
2013-12-16 16:15:00,51.6,38.5,30.10,ENE,78,0.0,0.0,61,0.00,SCT,OVC,0.00,WeatherDisplay:10.37,2013-12-16 21:15:00,
2013-12-16 16:25:00,51.4,38.0,30.11,ENE,77,0.0,0.0,60,0.00,SCT,OVC,0.00,WeatherDisplay:10.37,2013-12-16 21:25:00,
2013-12-16 16:30:00,51.5,38.5,30.11,NNW,347,0.0,0.0,61,0.00,SCT,OVC,0.00,WeatherDisplay:10.37,2013-12-16 21:30:00,
2013-12-16 16:55:00,51.2,38.2,30.11,ENE,68,0.0,0.0,61,0.00,CLR,OVC,0.00,WeatherDisplay:10.37,2013-12-16 21:55:00,
2013-12-16 17:05:00,51.0,38.4,30.12,ENE,68,0.0,2.0,62,0.00,CLR,OVC,0.00,WeatherDisplay:10.37,2013-12-16 22:05:00,
2013-12-16 17:15:00,50.6,38.5,30.12,ENE,68,0.0,0.0,63,0.00,CLR,OVC,0.00,WeatherDisplay:10.37,2013-12-16 22:15:00,
2013-12-16 17:20:00,50.4,38.3,30.13,ENE,68,0.0,0.0,63,0.00,CLR,OVC,0.00,WeatherDisplay:10.37,2013-12-16 22:20:00,
2013-12-16 17:25:00,50.1,38.0,30.13,ENE,68,0.0,0.0,63,0.00,CLR,OVC,0.00,WeatherDisplay:10.37,2013-12-16 22:25:00,
2013-12-16 17:30:00,49.9,38.2,30.13,ENE,68,0.0,0.0,64,0.00,CLR,OVC,0.00,WeatherDisplay:10.37,2013-12-16 22:30:00,
2013-12-16 18:25:00,47.4,37.3,30.13,ENE,57,0.0,0.0,68,0.00,SCT,OVC,0.00,WeatherDisplay:10.37,2013-12-16 23:25:00,
2013-12-16 18:31:00,47.2,37.2,30.13,ENE,57,0.0,0.0,68,0.00,SCT,OVC,0.00,WeatherDisplay:10.37,2013-12-16 23:31:00,
2013-12-16 18:40:00,46.9,36.9,30.14,ENE,57,0.0,0.0,68,0.00,SCT,OVC,0.00,WeatherDisplay:10.37,2013-12-16 23:40:00,
2013-12-16 18:45:00,46.7,37.1,30.14,ENE,57,0.0,0.0,69,0.00,SCT,OVC,0.00,WeatherDisplay:10.37,2013-12-16 23:45:00,
2013-12-16 18:55:00,46.3,36.7,30.14,ENE,57,0.0,0.0,69,0.00,SCT,OVC,0.00,WeatherDisplay:10.37,2013-12-16 23:55:00,
2013-12-16 19:01:00,46.1,36.5,30.15,ENE,57,0.0,0.0,69,0.00,,OVC,0.00,WeatherDisplay:10.37,2013-12-17 00:01:00,
2013-12-16 19:10:00,45.8,36.6,30.15,ENE,57,0.0,0.0,70,0.00,SCT,OVC,0.00,WeatherDisplay:10.37,2013-12-17 00:10:00,
2013-12-16 19:15:00,45.6,36.4,30.16,ENE,57,0.0,0.0,70,0.00,SCT,OVC,0.00,WeatherDisplay:10.37,2013-12-17 00:15:00,
2013-12-16 19:24:00,45.2,36.4,30.15,ENE,57,0.0,0.0,71,0.00,SCT,OVC,0.00,WeatherDisplay:10.37,2013-12-17 00:24:00,
2013-12-16 19:30:00,45.0,36.2,30.15,ENE,57,0.0,0.0,71,0.00,SCT,OVC,0.00,WeatherDisplay:10.37,2013-12-17 00:30:00,
2013-12-16 19:40:00,44.7,36.2,30.15,ENE,57,0.0,0.0,72,0.00,SCT,OVC,0.00,WeatherDisplay:10.37,2013-12-17 00:40:00,
2013-12-16 19:49:00,44.4,36.3,30.15,ENE,57,0.0,0.0,73,0.00,SCT,OVC,0.00,WeatherDisplay:10.37,2013-12-17 00:49:00,
2013-12-16 19:59:00,44.1,36.0,30.15,ENE,57,0.0,0.0,73,0.00,,OVC,0.00,WeatherDisplay:10.37,2013-12-17 00:59:00,
2013-12-16 20:09:00,43.9,35.8,30.15,ENE,57,0.0,0.0,73,0.00,SCT,OVC,0.00,WeatherDisplay:10.37,2013-12-17 01:09:00,
2013-12-16 20:14:00,43.8,35.7,30.15,ENE,57,0.0,0.0,73,0.00,SCT,OVC,0.00,WeatherDisplay:10.37,2013-12-17 01:14:00,
2013-12-16 20:24:00,43.6,35.8,30.14,ENE,57,0.0,0.0,74,0.00,SCT,OVC,0.00,WeatherDisplay:10.37,2013-12-17 01:24:00,
2013-12-16 20:30:00,43.5,35.7,30.14,ENE,57,0.0,0.0,74,0.00,SCT,OVC,0.00,WeatherDisplay:10.37,2013-12-17 01:30:00,
2013-12-16 20:39:00,43.4,36.0,30.15,ENE,57,0.0,0.0,75,0.00,SCT,OVC,0.00,WeatherDisplay:10.37,2013-12-17 01:39:00,
2013-12-16 20:49:00,43.3,35.9,30.15,ENE,57,0.0,0.0,75,0.00,SCT,OVC,0.00,WeatherDisplay:10.37,2013-12-17 01:49:00,
2013-12-16 20:54:00,43.3,35.9,30.15,ENE,57,0.0,0.0,75,0.00,SCT,OVC,0.00,WeatherDisplay:10.37,2013-12-17 01:54:00,
2013-12-16 21:01:00,43.2,35.8,30.15,ENE,57,0.0,0.0,75,0.00,,OVC,0.00,WeatherDisplay:10.37,2013-12-17 02:01:00,
2013-12-16 21:10:00,43.2,36.1,30.14,ENE,57,0.0,0.0,76,0.00,SCT,OVC,0.00,WeatherDisplay:10.37,2013-12-17 02:10:00,
2013-12-16 21:19:00,43.1,36.4,30.14,ENE,57,0.0,0.0,77,0.00,SCT,OVC,0.00,WeatherDisplay:10.37,2013-12-17 02:19:00,
2013-12-16 21:24:00,43.0,36.3,30.14,ENE,57,0.0,0.0,77,0.00,SCT,OVC,0.00,WeatherDisplay:10.37,2013-12-17 02:24:00,
2013-12-16 21:29:00,43.0,36.6,30.14,ENE,57,0.0,0.0,78,0.00,SCT,OVC,0.00,WeatherDisplay:10.37,2013-12-17 02:29:00,
2013-12-16 21:34:00,42.9,36.2,30.14,ENE,57,0.0,0.0,77,0.00,SCT,OVC,0.00,WeatherDisplay:10.37,2013-12-17 02:34:00,
2013-12-16 21:44:00,42.9,36.1,30.14,ENE,57,0.0,0.0,77,0.00,SCT,OVC,0.00,WeatherDisplay:10.37,2013-12-17 02:44:00,
2013-12-16 21:49:00,42.7,36.3,30.14,ENE,57,0.0,0.0,78,0.00,SCT,OVC,0.00,WeatherDisplay:10.37,2013-12-17 02:49:00,
2013-12-16 21:55:00,42.7,36.3,30.14,ENE,57,0.0,0.0,78,0.00,SCT,OVC,0.00,WeatherDisplay:10.37,2013-12-17 02:55:00,
2013-12-16 22:00:00,42.7,36.3,30.14,ENE,57,0.0,0.0,78,0.00,,OVC,0.00,WeatherDisplay:10.37,2013-12-17 03:00:00,
2013-12-16 22:05:00,42.6,36.2,30.14,ENE,57,0.0,0.0,78,0.00,SCT,OVC,0.00,WeatherDisplay:10.37,2013-12-17 03:05:00,
2013-12-16 22:14:00,42.5,36.4,30.14,ENE,57,0.0,0.0,79,0.00,SCT,OVC,0.00,WeatherDisplay:10.37,2013-12-17 03:14:00,
2013-12-16 22:24:00,42.4,36.7,30.14,ENE,57,0.0,0.0,80,0.00,SCT,OVC,0.00,WeatherDisplay:10.37,2013-12-17 03:24:00,
2013-12-16 22:34:00,42.3,36.6,30.14,ENE,57,0.0,0.0,80,0.00,SCT,OVC,0.00,WeatherDisplay:10.37,2013-12-17 03:34:00,
2013-12-16 22:39:00,42.2,36.5,30.14,ENE,57,0.0,0.0,80,0.00,SCT,OVC,0.00,WeatherDisplay:10.37,2013-12-17 03:39:00,
2013-12-16 22:44:00,42.2,36.5,30.14,ENE,57,0.0,0.0,80,0.00,SCT,OVC,0.00,WeatherDisplay:10.37,2013-12-17 03:44:00,
2013-12-16 22:54:00,42.1,36.4,30.14,NE,46,0.0,0.0,80,0.00,SCT,OVC,0.00,WeatherDisplay:10.37,2013-12-17 03:54:00,
2013-12-16 22:59:00,42.0,36.6,30.14,NE,39,0.0,0.0,81,0.00,,OVC,0.00,WeatherDisplay:10.37,2013-12-17 03:59:00,
2013-12-16 23:09:00,41.9,36.5,30.14,NE,39,0.0,0.0,81,0.00,SCT,OVC,0.00,WeatherDisplay:10.37,2013-12-17 04:09:00,
2013-12-16 23:14:00,41.9,36.5,30.14,NE,39,0.0,0.0,81,0.00,SCT,OVC,0.00,WeatherDisplay:10.37,2013-12-17 04:14:00,
2013-12-16 23:24:00,41.8,36.4,30.14,NE,39,0.0,0.0,81,0.00,SCT,OVC,0.00,WeatherDisplay:10.37,2013-12-17 04:24:00,
2013-12-16 23:29:00,41.8,36.7,30.13,NE,39,0.0,0.0,82,0.00,SCT,OVC,0.00,WeatherDisplay:10.37,2013-12-17 04:29:00,
2013-12-16 23:39:00,41.8,36.7,30.13,NE,46,0.0,0.0,82,0.00,SCT,OVC,0.00,WeatherDisplay:10.37,2013-12-17 04:39:00,
2013-12-16 23:44:00,41.7,36.6,30.13,ENE,59,0.0,0.0,82,0.00,SCT,OVC,0.00,WeatherDisplay:10.37,2013-12-17 04:44:00,
2013-12-16 23:56:00,41.7,36.6,30.13,ENE,59,0.0,0.0,82,0.00,SCT,OVC,0.00,WeatherDisplay:10.37,2013-12-17 04:56:00,